www.pogodaiklimat.ru

Погода и климат >> Архив погоды >> Таиланд >> Дон Муанг


ПОГОДА в Дон Муанг

  • Прогноз погоды в Дон Муанг
  • Монитор погоды в Дон Муанг

АРХИВ ПОГОДЫ в Дон Муанг

Время (UTC), дата Ветер
(напр.,м/с)
 
Видим.   Явления Облачность Т
(С)
Тd
(С)
f
(%)
Тe
(С)
Тes
(С)
Комфортность P
(гПа)
Po
(гПа)
Тmin
(С)
Tmax
(С)
R
(мм)
R24
(мм)
S
(см)
06 17.02 ЮЗ 8 10 км 8/3 600 м
[Cu med, cong Ac trans Cs]
+32.9 +21.2 50 +40 +42 очень
душно
1011.7 1010.3
09 17.02 ЮЗ 9 10 км 8/3 600 м
[Cb cap Ac trans Cs]
+31.4 +21.0 54 +39 +39 очень
душно
1010.1 1008.7
12 17.02 Ю 7 9000 м дымка 8/3 600 м
[Cu Sc Ac trans Cs]
+28.4 +23.0 73 +38 +38 очень
душно
1010.6 1009.2 +33.0
15 17.02 Ю 10 10 км 4/1 600 м
[Cu hum Cs]
+27.8 +23.6 78 +38 +38 очень
душно
1011.5 1010.1
18 17.02 Ю 6 10 км 4/1 600 м
[Cu hum Cs]
+27.1 +23.6 81 +37 +37 очень
душно
1011.4 1010.0
21 17.02 Ю 4 10 км 6/1 600 м
[Cu hum As trans Cs]
+26.7 +23.6 83 +36 +36 очень
душно
1010.3 1008.9
00 18.02 ЮВ 3 9000 м дымка 8/3 600 м
[Cu Sc Ac trans Cs]
+26.3 +23.8 86 +36 +36 очень
душно
1011.7 1010.3 +26.3
03 18.02 ЮЗ 8 10 км 8/3 600 м
[Cu Sc Ac lent Cs]
+29.9 +23.4 68 +40 +41 очень
душно
1014.6 1013.2
06 18.02 Ю 12 10 км 8/3 600 м
[Cu Sc Ac trans Cs]
+31.8 +22.8 59 +42 +42 опасность
перегрева
1012.2 1010.8
09 18.02 ЮЗ 8 10 км 6/3 600 м
[Cu Sc Cs]
+33.1 +21.6 51 +41 +42 опасность
перегрева
1009.1 1007.7
12 18.02 Ю 8 10 км 5/1 600 м
[Cu hum Cs]
+28.7 +21.0 63 +36 +36 очень
душно
1011.2 1009.8 +33.8
15 18.02 Ю 7 10 км 5/1 600 м
[Cu hum Cs]
+27.7 +23.3 77 +37 +37 очень
душно
1011.8 1010.4
18 18.02 Ю 6 10 км 6/3 600 м
[Cu hum Cs]
+27.1 +23.6 81 +37 +37 очень
душно
1011.7 1010.3
21 18.02 Ю 5 10 км 6/3 600 м
[Cu med, cong Cs]
+26.6 +23.2 82 +36 +36 очень
душно
1011.1 1009.7
00 19.02 В 5 10 км 5/1 600 м
[Cu hum Cs]
+24.3 +23.3 94 +33 +33 очень
душно
1013.0 1011.6 +24.3
03 19.02 Ю 6 9000 м мгла 5/1 600 м
[Cu hum Cs]
+31.3 +22.2 59 +40 +44 очень
душно
1014.7 1013.3
06 19.02 ЮЗ 6 10 км 6/3 600 м
[Cu med, cong Ac trans Cs]
+32.7 +20.8 50 +40 +44 очень
душно
1012.7 1011.3
09 19.02 ЮЗ 9 10 км 6/3 600 м
[Cu hum Cs]
+34.2 +19.0 41 +39 +40 очень
душно
1010.5 1009.2
12 19.02 Ю 7 10 км 5/1 600 м
[Cu hum Ac lent Cs]
+29.5 +22.3 65 +38 +38 очень
душно
1012.1 1010.7 +34.3
15 19.02 Ю 6 10 км 5/1 600 м
[Cu hum Ac lent Cs]
+28.2 +23.2 74 +38 +38 очень
душно
1014.0 1012.6
18 19.02 Ю 6 10 км 5/1 600 м
[Cu hum Ac trans Cs]
+27.5 +24.0 81 +38 +38 очень
душно
1014.1 1012.7
21 19.02 Ю 5 10 км 8/4 600 м
[Cu Sc Ac lent Cs]
+27.3 +23.8 81 +37 +37 очень
душно
1013.1 1011.7
00 20.02 В 4 9000 м дымка 6/3 600 м
[Cu Sc Cs]
+25.2 +23.9 93 +35 +35 очень
душно
1014.7 1013.3 +25.2
03 20.02 Ю 4 10 км 6/1 600 м
[Cu hum Cs]
+31.1 +23.9 66 +43 +49 опасность
перегрева
1016.2 1014.8
06 20.02 Ю 8 10 км 6/3 600 м
[Cu Sc Cs]
+34.0 +18.7 40 +39 +41 очень
душно
1014.4 1013.1
09 20.02 Ю 6 10 км 6/3 600 м
[Cu hum Cs]
+33.9 +20.7 46 +41 +42 опасность
перегрева
1012.2 1010.8
12 20.02 ЮЗ 6 10 км 6/3 600 м
[Cu hum Cs]
+30.2 +20.4 56 +37 +37 очень
душно
1012.4 1011.0 +34.4
15 20.02 Ю 6 10 км 5/1 600 м
[Cu hum Cs]
+28.4 +23.9 77 +39 +39 очень
душно
1014.7 1013.2
18 20.02 Ю 5 10 км 4/1 600 м
[Cu hum Cs]
+27.6 +24.3 82 +39 +39 очень
душно
1014.1 1012.7
21 20.02 Ю 6 10 км 4/1 600 м
[Cu hum Cs]
+27.1 +24.7 87 +39 +39 очень
душно
1013.4 1012.0
00 21.02 Ю 5 8000 м дымка 4/1 600 м
[Cu hum Cs]
+25.8 +24.3 91 +36 +36 очень
душно
1014.5 1013.0 +25.8
03 21.02 Ю 4 8000 м дымка 8/3 600 м
[Cu Sc Cs]
+30.9 +24.6 69 +44 +49 опасность
перегрева
1016.1 1014.7
06 21.02 ЮЗ 7 9000 м мгла 8/3 600 м
[Cu Sc Ac trans Cs]
+34.1 +23.0 52 +44 +46 опасность
перегрева
1013.6 1012.2
09 21.02 ЮЗ 7 10 км 8/3 600 м
[Cu Sc Ac lent Cs]
+34.3 +23.4 53 +45 +46 опасность
перегрева
1011.4 1010.0
12 21.02 Ю 7 10 км 5/1 600 м
[Cu hum Cs]
+30.0 +23.6 69 +41 +41 опасность
перегрева
1012.2 1010.8 +34.9
15 21.02 Ю 8 10 км 4/1 600 м
[Cu hum Cs]
+28.7 +23.6 74 +39 +39 очень
душно
1013.1 1011.7
18 21.02 Ю 6 10 км 4/1 600 м
[Cu hum Cs]
+28.1 +23.0 74 +38 +38 очень
душно
1012.0 1010.5
21 21.02 ЮВ 2 10 км 6/1 600 м
[Cu hum Cs]
+27.1 +23.9 83 +37 +37 очень
душно
1011.3 1009.9
00 22.02 В 3 10 км 6/1 600 м
[Cu hum Cs]
+25.5 +24.0 91 +35 +35 очень
душно
1012.7 1011.3 +25.3
03 22.02 Ю 6 12 км 5/1 600 м
[Cu hum Cs]
+31.6 +22.9 60 +42 +46 опасность
перегрева
1013.7 1012.3
06 22.02 ЮЗ 6 12 км 6/3 600 м
[Cu hum Cs]
+34.7 +21.8 47 +43 +47 опасность
перегрева
1011.3 1009.9
09 22.02 ЮЗ 9 10 км 5/1 1000 м
[Cu hum Cs]
+34.7 +20.6 44 +41 +42 опасность
перегрева
1009.5 1008.1
12 22.02 Ю 8 10 км 4/0
[Cs]
+30.1 +21.1 59 +38 +38 очень
душно
1009.5 1008.1 +34.8
15 22.02 Ю 7 10 км 4/0
[Cs]
+28.6 +24.1 77 +40 +40 очень
душно
1011.3 1009.9
18 22.02 Ю 9 10 км 5/1 600 м
[Cu hum Cs]
+28.0 +24.8 83 +40 +40 очень
душно
1010.3 1008.9
21 22.02 Ю 6 10 км 4/1 600 м
[Cu hum Cs]
+27.6 +24.9 85 +39 +39 очень
душно
1009.7 1008.3
00 23.02 ЮВ 5 9000 м дымка 4/1 600 м
[Cu hum Cs]
+25.8 +24.6 93 +36 +36 очень
душно
1011.0 1009.6 +25.7
03 23.02 ЮЗ 8 10 км 6/3 600 м
[Cu Sc Ac trans Cs]
+31.3 +24.1 66 +43 +45 опасность
перегрева
1012.4 1011.0
06 23.02 ЮЗ 8 10 км 6/4 600 м
[Cu Sc Ac lent Cs]
+34.5 +22.1 49 +43 +45 опасность
перегрева
1009.9 1008.5
09 23.02 Ю 6 10 км 6/1 600 м
[Cu hum Ac trans Cs]
+35.6 +21.0 43 +43 +44 опасность
перегрева
1007.6 1006.2
12 23.02 Ю 6 10 км 6/1 600 м
[Cu hum Cs]
+31.2 +22.2 59 +40 +40 очень
душно
1008.6 1007.2 +35.6
15 23.02 Ю 11 10 км 5/1 600 м
[Cu hum Cs]
+29.0 +24.7 78 +41 +41 опасность
перегрева
1010.4 1009.0
18 23.02 Ю 10 10 км 5/3 600 м
[Sc Cs]
+28.4 +25.0 82 +41 +41 опасность
перегрева
1010.7 1009.3
21 23.02 Ю 7 10 км 5/3 600 м
[Cu hum Cs]
+28.1 +25.1 84 +41 +41 опасность
перегрева
1010.3 1008.8
00 24.02 В 7 9000 м дымка 5/3 600 м
[Cu hum Cs]
+27.5 +25.1 87 +40 +40 очень
душно
1010.5 1009.1 +27.5
03 24.02 Ю 7 10 км 8/3 600 м
[Cu Sc Cs]
+32.1 +24.2 63 +44 +46 опасность
перегрева
1012.0 1010.6

 

Местоположение метеостанции Дон Муанг (Таиланд): широта 13.92 долгота 100.60 высота над уровнем моря 12 м.

В архиве по умолчанию представлена погода в Дон Муанг за последнюю неделю. Архивные данные за месяц целиком и за предыдущие месяцы, начиная с января 2011 года, Вы можете получить, выбрав интересующий диапазон дат из раскрывающегося списка и нажав кнопку "Ввод!".


*Определитесь, кто Вы:
робот инопланетянин человек

Внимание! Время в таблицах - всемирное. Для получения местного времени необходимо прибавить поправку, которая равна 7 ч.

Смотрите также архив погоды в соседних городах и на ближайших метеорологических станциях:

Погода в Патхумтхани (Таиланд) (20 км)
Погода в Бангкоке (Таиланд) (22 км)
Погода в Бангкоке 2 (Таиланд) (25 км)
Погода в Бангна Агромете (Таиланд) (28 км)
Погода в Аэропорту Суварнабхуми (Таиланд) (32 км)
Погода в Самутрудкан Агромете (Таиланд) (47 км)
Погода в Бангкок Пилот (Таиланд) (60 км)
Погода в Аюттхая (Таиланд) (68 км)
Погода в Накхонпатхоме (Таиланд) (69 км)
Погода в Чонбури (Таиланд) (74 км)

Пояснения к столбцам:

Ветер - указаны скорость ветра в м/с - средняя за 10 мин, порывы в срок и между сроками (в фигурных скобках) и направление, откуда дует ветер: С - северный, СВ - северо-восточный, В - восточный, ЮВ - юго-восточный, Ю - южный, ЮЗ - юго-западный, З - западный, СЗ - северо-западный.
Видимость - горизонтальная дальность видимости в метрах или километрах. При видимости от 1 до 10 км при отсутствии осадков обычно наблюдается дымка, при ухудшении видимости до 1 км и менее - туман. В сухую погоду видимость может ухудшаться дымом, пылью или мглою.
Явления - указаны атмосферные явления, наблюдавшиеся в срок или в последний час перед сроком; фигурными скобками обозначены явления, наблюдавшиеся между сроками (за 1-3 часа до срока); квадратными скобками обозначены град или гололедные отложения с указанием их диаметра в мм.
Облачность - указаны через наклонную черту общая и нижняя облачность в баллах и высота нижней границы облаков в метрах; квадратными скобками обозначены формы облаков: Ci - перистые, Cs - перисто-слоистые, Cc - перисто-кучевые, Ac - высококучевые, As - высокослоистые, Sc - слоисто-кучевые, Ns - слоисто-дождевые, Cu - кучевые, Cb - кучево-дождевые. Подробнее классификацию облаков см. в Атласе облаков (PDF).
T - Температура воздуха - температура, измеренная на высоте 2 м над землей.
Td - Температура точки росы - температура, при понижении до которой содержащийся в воздухе водяной пар достигнет насыщения.
f - Относительная влажность воздуха - влажноcть воздуха, измеренная на высоте 2 м над землей.
Te - Эффективная температура - температура, которую ощущает одетый по сезону человек в тени. Характеристика душности погоды. При расчете учитывается влияние влажности воздуха и скорости ветра на теплоощущения человека.
Tes - Эффективная температура на солнце - температура, которую ощущает человек, с поправкой на солнечный нагрев. Характеристика знойности погоды. Зависит от высоты солнца над горизонтом, облачности и скорости ветра. Ночью, в пасмурную погоду, а также при ветре 12 м/с и более поправка равна нулю.
P - Атмосферное давление - приведенное к уровню моря атмосферное давление.
Po - Атмосферное давление - измеренное на уровне метеостанции атмосферное давление.
Tmin - Минимальная температура - минимум температуры воздуха на высоте 2 м над землей.
Tmax - Максимальная температура - максимум температуры воздуха на высоте 2 м над землей.
R - Количество осадков - Количество выпавших осадков за период времени, мм. При наведении курсора мыши на число - период времени, за который выпало указанное количество осадков.
R24 - Количество осадков - Количество выпавших осадков за 24 часа, мм.
S - Снежный покров - Высота снежного покрова, см. При наведении курсора мыши на число - состояние снежного покрова и степень покрытия местности в баллах.